Dewpoint
-2 -3 -4 -3 -2 -2 -1 -2 1 -1 0 -0 -2 -3 1 2 2 1 0 -0 -1 -3 -8 -19 -17 -29 -29 -23 -19 -18 -15 -14 -14 -14 -13 -14 -14 -15 -17 -21 -28 -35 -34 -33
1 -1 -2 -1 -1 -1 -1 -2 -1 -2 -2 -5 -6 -0 3 3 2 1 -0 -1 -2 -4 -8 -10 -24 -20 -13 -12 -12 -12 -14 -13 -13 -13 -13 -15 -16 -18 -22 -26 -31 -37 -36 -32
3 1 0 1 -1 -1 -2 -3 -3 -2 -4 -4 1 2 3 3 2 0 -0 -2 -3 -5 -6 -18 -18 -11 -10 -11 -12 -12 -12 -12 -12 -12 -12 -13 -17 -20 -25 -31 -35 -36 -37 -37
2 2 3 -1 -3 -4 -4 -5 -6 0 0 1 2 2 1 2 1 0 -1 -2 -4 -6 -10 -11 -10 -11 -11 -12 -12 -13 -13 -12 -12 -14 -14 -14 -16 -19 -23 -29 -32 -32 -34 -36
3 2 -0 -2 -4 -4 -0 1 1 1 3 2 0 0 1 1 1 -0 -2 -3 -6 -8 -11 -11 -12 -11 -11 -11 -11 -13 -14 -15 -15 -16 -17 -18 -18 -18 -18 -20 -20 -21 -24 -30
3 4 3 -2 0 0 0 3 0 -0 1 1 -0 1 -1 0 0 -2 -3 -4 -7 -10 -11 -12 -11 -11 -11 -11 -12 -15 -17 -19 -21 -22 -21 -20 -18 -18 -16 -15 -14 -14 -17 -24
3 3 2 -3 -1 -2 3 2 -1 -2 -0 -1 1 2 0 -1 -2 -3 -4 -6 -8 -9 -10 -11 -11 -11 -11 -12 -14 -18 -20 -21 -23 -23 -23 -22 -19 -17 -15 -14 -15 -13 -15 -18
3 4 4 1 1 2 1 -1 -2 -2 -1 1 1 0 -1 -1 -4 -5 -5 -6 -6 -9 -10 -10 -11 -11 -11 -13 -19 -21 -22 -23 -25 -26 -26 -22 -19 -16 -15 -15 -12 -11 -14 -17
2 1 0 0 0 1 -0 -1 -2 -2 -1 -1 -0 -0 -1 -2 -4 -5 -6 -6 -10 -9 -9 -9 -10 -10 -10 -12 -18 -18 -20 -23 -25 -25 -23 -20 -18 -18 -18 -16 -15 -14 -14 -20
3 0 2 2 1 -1 -1 -1 -2 -2 -1 -1 -1 -1 -1 -3 -4 -6 -7 -9 -10 -10 -10 -10 -10 -10 -11 -13 -13 -15 -18 -19 -21 -20 -18 -16 -17 -19 -26 -23 -23 -22 -22 -22
3 2 2 2 2 1 -1 -2 -2 -2 -1 -2 -1 -1 -3 -3 -4 -7 -9 -11 -12 -11 -11 -11 -12 -12 -11 -12 -13 -13 -14 -16 -17 -15 -16 -15 -16 -20 -26 -28 -30 -30 -29 -29
4 2 1 2 1 0 -1 -2 -2 -2 -2 -2 -2 -2 -3 -4 -5 -9 -10 -12 -12 -12 -12 -12 -12 -12 -12 -12 -13 -12 -12 -13 -14 -16 -15 -14 -14 -15 -16 -16 -16 -20 -20 -20
2 1 -1 -1 -0 -1 -1 -1 -2 -2 -2 -3 -3 -3 -4 -5 -7 -10 -11 -12 -13 -12 -12 -12 -12 -13 -12 -12 -13 -12 -12 -13 -14 -13 -13 -14 -14 -15 -15 -14 -14 -15 -15 -15
-0 -1 -1 -1 -2 -1 -1 -2 -2 -3 -3 -3 -3 -4 -5 -6 -8 -11 -12 -12 -13 -13 -13 -13 -13 -13 -12 -12 -12 -13 -13 -13 -13 -13 -13 -13 -13 -14 -15 -14 -17 -16 -14 -14
-1 -1 -2 -3 -2 -2 -2 -3 -3 -3 -3 -4 -4 -5 -6 -7 -9 -10 -11 -12 -13 -13 -13 -14 -13 -13 -12 -12 -12 -13 -13 -13 -13 -13 -14 -13 -14 -15 -16 -17 -15 -14 -13 -12
-1 -1 -2 -3 -2 -3 -3 -3 -3 -3 -3 -4 -4 -5 -6 -7 -9 -10 -10 -12 -13 -14 -14 -14 -14 -13 -13 -13 -13 -12 -12 -12 -13 -13 -13 -16 -17 -17 -14 -13 -13 -12 -12 -12
-2 -3 -3 -3 -3 -3 -3 -4 -3 -3 -3 -4 -5 -5 -6 -7 -9 -9 -10 -12 -14 -14 -14 -14 -14 -14 -14 -16 -18 -18 -18 -16 -16 -15 -15 -13 -13 -12 -12 -12 -12 -13 -13 -13
-2 -2 -2 -3 -3 -4 -4 -3 -3 -3 -3 -4 -4 -5 -6 -7 -8 -9 -10 -11 -12 -14 -14 -14 -14 -16 -18 -21 -22 -17 -14 -12 -12 -13 -13 -11 -11 -12 -13 -12 -13 -13 -13 -14
-3 -3 -3 -3 -3 -4 -3 -3 -3 -4 -4 -4 -4 -5 -7 -7 -8 -8 -9 -10 -11 -13 -13 -13 -16 -18 -20 -23 -22 -12 -11 -10 -11 -12 -12 -11 -12 -12 -13 -14 -13 -13 -13 -14
-4 -4 -3 -3 -3 -3 -3 -3 -3 -4 -4 -5 -5 -6 -6 -6 -6 -7 -9 -10 -11 -13 -14 -16 -17 -18 -21 -23 -24 -20 -11 -11 -11 -11 -12 -12 -12 -14 -13 -13 -13 -14 -15 -15
-3 -3 -3 -3 -3 -3 -4 -4 -4 -4 -5 -5 -6 -6 -7 -7 -7 -7 -8 -9 -11 -14 -13 -14 -16 -19 -20 -23 -26 -24 -17 -13 -12 -12 -12 -14 -14 -14 -13 -14 -14 -15 -16 -16
-2 -3 -3 -3 -3 -3 -4 -5 -6 -6 -7 -7 -7 -8 -8 -9 -9 -9 -11 -12 -11 -11 -14 -16 -18 -19 -20 -23 -24 -18 -14 -13 -13 -14 -14 -13 -13 -14 -14 -15 -15 -15 -16 -19
-5 -5 -5 -4 -4 -5 -6 -7 -7 -7 -8 -8 -8 -9 -9 -10 -10 -10 -11 -11 -11 -10 -13 -17 -17 -18 -20 -22 -18 -14 -13 -13 -14 -14 -14 -14 -14 -15 -15 -16 -17 -20 -26 -29
-5 -5 -6 -6 -6 -7 -7 -7 -7 -8 -8 -9 -9 -10 -10 -10 -10 -11 -10 -10 -11 -13 -15 -15 -15 -16 -18 -16 -13 -13 -13 -13 -13 -14 -14 -15 -15 -16 -18 -23 -29 -31 -31 -31
-5 -5 -5 -5 -6 -6 -6 -7 -7 -8 -8 -9 -10 -11 -10 -10 -9 -9 -9 -8 -9 -12 -13 -12 -12 -15 -15 -13 -13 -13 -13 -14 -14 -15 -15 -16 -17 -21 -29 -31 -31 -31 -30 -29
-4 -5 -5 -5 -4 -5 -6 -7 -7 -7 -8 -8 -9 -10 -9 -8 -8 -8 -8 -9 -10 -11 -11 -11 -13 -13 -13 -13 -13 -13 -14 -14 -15 -16 -17 -21 -28 -31 -31 -31 -31 -29 -29 -29
-4 -4 -4 -3 -4 -5 -6 -5 -5 -6 -6 -6 -6 -7 -7 -8 -9 -9 -9 -10 -11 -12 -12 -12 -13 -13 -13 -13 -14 -14 -15 -16 -18 -23 -29 -31 -31 -31 -30 -30 -29 -29 -29 -27
Wind_Speed
12 12 13 16 16 15 13 13 7 13 14 8 8 7 4 17 28 27 23 21 17 22 19 15 11 11 10 9 7 7 5 6 7 8 7 8 7 8 9 12 15 18 18 19
9 11 14 18 14 13 18 19 18 20 20 11 18 6 12 18 18 26 24 18 14 16 18 16 14 13 11 9 8 7 6 6 6 7 6 6 7 8 11 13 15 18 20 19
10 8 11 12 11 15 17 19 13 16 16 9 4 6 13 16 27 27 23 20 17 14 14 16 16 14 13 12 9 7 6 6 5 5 4 5 7 8 12 15 16 18 20 21
4 4 10 8 7 12 14 11 13 4 12 4 9 8 9 20 27 23 23 22 18 15 15 15 16 14 15 14 12 12 9 8 6 5 4 2 6 9 11 13 16 19 21 21
4 5 10 15 12 8 1 5 1 3 3 10 16 15 12 16 18 20 22 21 20 20 22 20 17 16 16 16 15 13 11 9 6 4 4 5 6 8 10 11 14 17 20 21
3 4 4 4 3 7 3 4 5 4 7 8 8 3 3 15 16 19 21 21 24 26 21 18 19 18 19 17 14 12 11 9 9 8 7 7 9 11 12 11 12 14 17 20
10 7 7 4 4 5 4 4 5 4 15 13 4 4 19 17 19 19 21 24 23 22 20 19 20 21 17 14 13 12 10 9 9 7 6 7 8 8 9 10 12 14 14 17
5 5 8 4 7 3 5 5 6 3 13 14 16 19 19 18 23 21 21 18 19 23 22 20 18 18 15 13 14 14 12 11 9 7 6 6 5 7 7 7 8 7 10 12
5 6 5 2 5 2 3 6 5 11 11 14 16 17 18 21 23 20 18 15 21 23 22 17 19 17 13 12 15 13 12 9 8 6 5 4 3 2 1 2 2 1 5 9
3 4 2 12 21 10 4 3 8 8 11 11 15 14 16 21 23 23 19 18 20 22 20 20 18 15 12 11 13 13 12 10 8 7 6 4 1 2 1 2 4 5 6 8
3 13 11 3 17 11 6 5 7 8 10 10 12 13 16 22 23 23 20 19 22 23 17 18 17 17 17 12 13 13 11 9 9 6 6 5 6 5 3 4 4 6 5 6
3 12 2 12 20 14 16 10 8 11 10 15 15 13 16 21 22 23 19 22 23 19 17 18 19 16 16 13 13 13 12 11 9 9 9 7 7 6 5 6 6 6 7 8
8 9 1 5 7 12 13 12 11 10 12 14 15 11 19 21 21 22 22 22 19 18 17 18 19 19 15 14 15 16 15 13 11 10 9 11 11 9 9 8 6 5 6 7
6 3 4 7 4 9 11 13 11 11 12 13 14 15 20 21 20 22 22 20 18 17 18 18 18 18 16 14 17 18 15 13 15 15 15 14 14 13 12 11 9 6 5 6
16 9 2 10 11 10 11 11 13 13 14 15 16 18 20 21 20 20 18 17 17 17 18 18 18 18 18 18 17 18 18 16 17 16 15 16 16 15 13 8 6 4 5 7
14 10 8 12 14 13 9 14 15 16 15 15 16 17 17 18 19 17 17 18 19 19 18 18 17 17 16 16 16 17 18 18 19 19 18 15 11 8 6 4 3 5 8 8
18 11 12 10 13 15 13 13 15 15 15 16 16 16 16 16 18 18 17 17 16 15 15 15 14 13 13 13 15 16 16 15 13 13 11 7 5 4 5 7 8 9 9 11
10 8 11 12 16 15 14 12 12 12 15 15 16 16 16 17 19 18 17 17 15 15 14 12 12 12 12 11 11 12 9 7 7 5 11 8 8 9 10 10 10 11 10 7
9 8 8 13 15 15 14 13 14 14 14 14 14 17 16 16 16 16 15 13 12 15 15 14 12 11 10 10 12 15 12 10 8 5 9 10 10 9 10 11 12 11 10 13
12 10 12 15 13 14 14 12 11 11 12 12 13 15 16 16 15 14 13 13 11 10 12 12 11 10 9 10 12 16 15 11 10 10 11 12 11 10 10 10 11 14 16 18
12 13 15 14 14 11 8 8 8 10 11 10 11 13 13 14 14 13 12 12 10 10 10 9 9 8 8 9 11 14 13 12 12 12 10 9 10 11 12 13 15 16 18 20
11 12 12 12 13 11 10 9 9 9 10 11 11 10 11 11 12 12 11 10 7 7 8 9 8 7 6 9 13 12 10 10 10 10 10 11 12 13 14 15 17 19 21 21
12 11 12 11 10 10 11 10 9 8 8 8 8 8 8 7 8 9 9 9 8 7 8 9 8 5 5 9 9 7 7 9 9 9 11 12 14 15 16 18 19 20 20 19
12 12 12 11 11 10 10 10 8 8 8 8 8 7 7 8 9 8 7 6 7 10 9 7 6 7 9 10 9 9 10 10 10 11 13 14 15 16 18 18 17 16 16 15
11 11 11 10 9 9 8 8 8 8 8 8 9 9 8 8 7 6 7 9 9 10 9 8 9 11 13 11 9 9 10 10 11 13 14 15 16 17 17 16 16 15 14 13
11 10 10 8 5 5 7 8 7 8 8 9 11 10 10 9 8 8 9 9 10 11 10 11 12 13 12 10 9 9 10 10 12 13 15 15 16 16 15 14 13 12 11 11
10 11 12 11 8 6 8 8 7 6 6 5 6 8 9 9 9 9 9 9 10 10 10 11 11 11 10 9 8 8 9 11 13 13 14 14 14 13 11 11 11 11 11 11
Wind_Direction
274 284 290 293 298 299 291 274 256 279 267 256 257 251 298 192 180 179 190 195 206 206 199 192 187 177 159 141 119 109 102 78 67 73 62 56 50 38 34 34 39 43 46 45
273 266 270 271 266 261 264 272 268 271 274 240 253 120 106 152 181 182 190 195 193 194 192 192 185 172 154 136 126 111 102 103 85 77 66 51 47 41 47 49 48 47 46 45
276 278 301 281 242 245 252 253 251 258 270 275 114 147 172 184 177 177 182 185 188 188 187 181 171 160 157 156 152 154 140 129 126 121 89 61 56 51 51 57 56 54 50 46
290 9 269 247 234 246 252 265 260 358 328 106 127 87 189 194 179 178 181 181 183 177 161 156 163 174 167 161 167 166 165 159 159 158 146 97 64 62 59 58 54 51 50 49
245 222 283 305 287 278 87 280 205 87 176 138 124 102 64 179 179 179 182 181 178 174 167 169 173 167 164 171 182 188 186 180 176 158 128 108 82 62 57 60 54 46 44 42
216 240 264 226 120 60 157 291 184 189 170 138 147 107 234 158 167 170 174 177 174 177 180 180 175 174 181 191 196 189 179 163 146 136 120 103 85 76 69 64 59 49 43 42
223 244 270 262 135 79 60 232 216 201 161 159 137 193 157 160 160 176 173 173 179 183 180 174 170 184 195 198 193 182 169 154 145 133 118 103 93 82 69 60 47 37 31 36
209 231 260 354 125 173 207 160 176 156 141 127 133 141 156 161 158 164 165 173 183 176 170 177 183 194 199 192 182 174 169 163 154 142 125 118 112 82 68 60 60 27 6 25
194 219 224 204 153 68 272 196 183 153 162 161 156 160 165 162 164 168 172 164 161 161 176 180 184 202 203 196 183 178 177 173 165 157 147 125 122 116 73 78 84 19 334 0
337 264 189 319 311 263 248 327 161 160 161 167 166 170 167 166 163 172 169 163 161 175 181 178 188 198 212 196 186 184 184 180 175 167 159 189 166 81 165 298 340 344 350 1
285 283 312 311 246 217 201 187 139 144 165 177 180 172 170 166 168 176 171 170 177 182 184 180 184 195 207 206 201 194 194 191 187 188 201 229 275 293 299 334 335 339 350 359
215 256 225 204 213 204 180 170 169 163 154 182 185 172 167 168 172 178 175 175 183 185 185 183 187 197 199 207 212 197 200 204 213 207 214 236 261 280 296 320 345 3 15 14
223 183 181 141 152 164 165 167 171 168 171 158 174 172 164 172 177 180 177 179 185 188 188 186 191 201 210 219 198 200 214 220 218 217 225 246 252 266 284 292 312 334 357 0
239 183 140 174 166 154 169 167 162 164 165 167 168 168 173 172 177 182 180 182 186 187 187 194 198 201 214 209 204 207 216 220 221 230 234 229 247 262 272 281 293 310 339 343
229 189 220 175 160 163 177 164 159 158 158 159 167 170 171 171 174 174 177 181 187 189 188 196 200 203 211 217 222 221 221 223 231 243 239 241 252 255 256 272 293 321 315 309
183 175 170 167 158 170 171 161 166 161 165 163 167 172 176 178 176 176 179 184 188 186 193 207 217 221 228 235 238 232 229 233 241 245 249 254 257 256 270 278 291 286 280 295
156 163 166 162 176 173 171 178 180 173 171 172 170 171 175 174 176 180 182 189 198 202 208 214 219 229 240 250 245 239 240 239 245 253 253 260 252 257 252 252 265 268 277 286
177 186 219 202 176 164 163 169 175 176 176 175 175 178 179 179 186 190 195 200 207 204 209 218 227 239 247 248 232 232 237 238 248 257 239 240 241 253 253 253 258 272 267 260
144 137 168 176 171 166 164 163 170 176 178 187 186 182 185 189 195 200 205 211 215 216 217 226 238 244 245 237 216 222 233 244 251 243 217 231 246 253 256 253 258 251 256 283
126 140 149 146 158 173 168 174 181 180 183 190 189 188 188 191 199 205 212 220 223 227 223 230 238 245 240 229 216 217 224 234 234 225 242 248 255 257 242 246 255 273 281 286
130 143 146 152 152 153 157 164 178 183 182 184 187 188 194 197 202 211 218 226 228 227 229 232 239 238 236 226 213 214 221 228 237 245 244 249 243 242 254 267 271 277 282 288
145 151 152 157 160 160 163 164 160 164 168 169 172 180 188 195 203 211 214 222 229 226 231 236 233 234 226 207 204 215 228 230 228 231 234 242 250 263 270 273 278 283 287 291
149 150 151 156 163 161 151 149 150 155 161 168 177 184 191 200 210 217 225 232 233 230 228 223 226 225 194 192 202 216 218 224 234 244 252 259 266 273 278 281 284 287 290 292
147 145 145 146 148 150 153 151 154 156 162 170 179 190 197 197 200 216 223 227 225 224 218 214 205 200 201 200 207 215 223 236 250 259 266 274 279 283 289 293 296 300 300 297
154 153 156 157 161 163 166 164 168 172 177 179 181 189 195 211 227 237 234 229 230 220 209 204 201 192 197 212 220 231 242 257 267 275 281 285 291 295 297 301 302 301 304 311
157 154 153 155 153 182 184 179 184 189 189 185 196 207 215 228 243 240 234 227 210 205 212 208 199 193 203 217 233 248 264 274 279 284 289 292 294 298 302 301 303 307 308 309
148 157 161 159 169 162 160 177 204 222 219 234 222 228 233 225 218 221 217 198 195 203 202 193 194 204 218 236 255 266 277 286 292 295 297 297 301 307 307 305 307 308 309 313
Height
1492 1492 1491 1488 1485 1484 1487 1487 1496 1481 1480 1476 1470 1465 1463 1463 1469 1474 1477 1479 1483 1487 1492 1494 1497 1500 1501 1502 1503 1504 1504 1505 1505 1504 1503 1502 1500 1497 1495 1492 1489 1485 1481 1477
1495 1490 1487 1486 1486 1485 1480 1477 1476 1472 1467 1461 1457 1460 1462 1466 1467 1474 1474 1477 1480 1484 1488 1492 1495 1498 1500 1502 1503 1505 1505 1506 1506 1505 1504 1502 1500 1498 1496 1494 1491 1487 1483 1481
1488 1485 1481 1481 1476 1473 1467 1465 1465 1466 1457 1453 1456 1456 1455 1458 1463 1467 1472 1475 1478 1482 1486 1489 1493 1496 1499 1502 1503 1505 1506 1506 1506 1506 1504 1503 1501 1499 1497 1495 1493 1490 1487 1484
1494 1492 1491 1471 1459 1457 1457 1455 1452 1456 1453 1451 1451 1452 1454 1458 1461 1466 1470 1473 1477 1481 1485 1489 1493 1496 1499 1501 1503 1504 1505 1506 1506 1505 1505 1503 1502 1500 1498 1497 1495 1493 1490 1488
1491 1489 1474 1465 1455 1454 1452 1457 1452 1453 1461 1455 1454 1456 1459 1460 1463 1464 1467 1472 1476 1480 1484 1489 1492 1496 1498 1500 1501 1503 1504 1504 1505 1505 1505 1504 1503 1501 1500 1498 1497 1495 1493 1491
1491 1485 1478 1454 1451 1450 1449 1464 1449 1450 1454 1452 1453 1463 1463 1462 1463 1465 1467 1471 1475 1479 1483 1487 1491 1494 1496 1498 1500 1501 1502 1503 1504 1505 1505 1505 1504 1503 1502 1500 1498 1497 1496 1494
1479 1480 1468 1451 1449 1448 1463 1459 1449 1449 1449 1450 1453 1454 1457 1460 1463 1464 1467 1471 1475 1478 1482 1485 1489 1491 1494 1496 1498 1500 1501 1502 1503 1504 1505 1505 1504 1504 1503 1501 1499 1498 1496 1496
1473 1472 1465 1446 1447 1451 1450 1446 1447 1448 1447 1448 1450 1454 1457 1460 1463 1464 1467 1471 1474 1478 1482 1486 1489 1490 1492 1495 1497 1499 1500 1501 1502 1504 1504 1505 1505 1504 1503 1502 1500 1499 1497 1497
1460 1457 1444 1443 1444 1445 1448 1446 1445 1445 1446 1446 1449 1454 1457 1460 1464 1465 1468 1471 1474 1478 1482 1486 1489 1490 1492 1494 1495 1497 1499 1501 1502 1503 1504 1504 1504 1504 1503 1502 1501 1500 1498 1496
1454 1443 1440 1440 1441 1444 1445 1445 1444 1444 1446 1447 1449 1453 1457 1460 1464 1466 1468 1471 1475 1478 1482 1485 1488 1490 1492 1493 1495 1497 1498 1500 1501 1502 1502 1502 1503 1504 1503 1502 1501 1500 1498 1497
1453 1446 1439 1439 1441 1442 1443 1445 1445 1445 1446 1447 1449 1452 1455 1459 1463 1465 1468 1471 1474 1477 1481 1485 1488 1489 1490 1492 1494 1495 1497 1498 1500 1501 1501 1502 1502 1503 1502 1501 1501 1499 1499 1497
1446 1439 1436 1435 1437 1437 1439 1442 1444 1445 1446 1446 1448 1451 1454 1458 1462 1465 1468 1471 1474 1477 1480 1484 1487 1488 1490 1492 1493 1495 1496 1497 1498 1499 1500 1501 1501 1501 1501 1500 1499 1498 1497 1496
1437 1435 1434 1435 1435 1436 1437 1440 1442 1444 1446 1447 1449 1451 1454 1458 1462 1465 1468 1471 1473 1476 1479 1482 1485 1487 1488 1490 1492 1494 1495 1496 1497 1497 1498 1497 1498 1498 1498 1498 1497 1497 1496 1495
1435 1433 1434 1434 1435 1436 1437 1439 1442 1444 1446 1448 1449 1452 1455 1459 1462 1464 1467 1470 1473 1476 1478 1480 1483 1485 1487 1489 1491 1492 1493 1494 1495 1495 1496 1496 1495 1495 1495 1495 1495 1495 1495 1494
1430 1430 1431 1432 1434 1436 1437 1439 1441 1444 1446 1448 1450 1453 1455 1458 1461 1464 1467 1470 1473 1475 1477 1480 1482 1484 1486 1488 1489 1490 1491 1492 1492 1493 1494 1494 1494 1494 1493 1493 1493 1493 1492 1492
1425 1427 1430 1431 1433 1435 1437 1440 1442 1444 1446 1448 1451 1453 1456 1459 1462 1464 1467 1469 1471 1473 1476 1478 1480 1483 1484 1486 1487 1487 1488 1489 1489 1490 1490 1490 1490 1490 1491 1491 1491 1491 1490 1489
1421 1426 1429 1431 1432 1434 1436 1439 1441 1444 1446 1449 1451 1454 1456 1459 1462 1464 1466 1469 1471 1473 1475 1477 1479 1481 1482 1483 1484 1484 1485 1486 1486 1486 1487 1487 1488 1488 1489 1489 1489 1488 1488 1487
1422 1425 1427 1428 1431 1433 1436 1439 1441 1443 1446 1449 1451 1454 1456 1458 1460 1463 1465 1468 1470 1472 1474 1476 1478 1479 1479 1480 1480 1480 1482 1483 1484 1484 1484 1485 1486 1486 1486 1486 1486 1485 1485 1484
1422 1424 1426 1428 1430 1433 1436 1439 1441 1443 1446 1449 1451 1453 1455 1458 1460 1462 1465 1467 1469 1470 1472 1474 1475 1476 1476 1477 1478 1478 1479 1480 1481 1482 1482 1483 1484 1484 1484 1483 1482 1482 1481 1480
1421 1424 1427 1429 1432 1434 1437 1440 1442 1444 1446 1449 1451 1453 1455 1458 1460 1462 1464 1465 1467 1469 1470 1471 1472 1473 1474 1474 1475 1476 1477 1477 1478 1479 1480 1480 1480 1480 1480 1480 1479 1479 1478 1476
1424 1427 1429 1431 1434 1436 1439 1441 1442 1444 1446 1448 1450 1452 1455 1457 1459 1461 1462 1464 1465 1466 1467 1468 1469 1470 1471 1472 1473 1473 1475 1476 1476 1477 1478 1478 1477 1477 1477 1476 1476 1475 1473 1472
1428 1430 1431 1433 1435 1437 1440 1441 1443 1444 1446 1448 1450 1452 1454 1456 1457 1459 1460 1462 1463 1464 1465 1466 1467 1468 1469 1469 1470 1472 1473 1474 1474 1474 1475 1475 1475 1475 1474 1473 1472 1470 1468 1466
1429 1431 1433 1435 1437 1438 1440 1442 1443 1445 1446 1448 1450 1451 1453 1455 1456 1457 1458 1460 1461 1462 1463 1463 1465 1466 1467 1468 1469 1470 1471 1471 1472 1473 1473 1473 1472 1471 1470 1469 1467 1465 1463 1461
1430 1432 1433 1435 1437 1439 1440 1442 1444 1445 1447 1448 1449 1450 1452 1452 1454 1455 1457 1458 1458 1459 1461 1462 1463 1464 1465 1466 1467 1468 1469 1470 1470 1470 1470 1469 1468 1467 1465 1464 1462 1460 1458 1455
1431 1432 1434 1436 1437 1439 1441 1442 1443 1444 1446 1447 1448 1449 1450 1451 1453 1454 1455 1455 1456 1457 1459 1461 1462 1462 1463 1465 1466 1467 1468 1468 1468 1467 1466 1465 1464 1462 1460 1459 1457 1455 1453 1452
1431 1433 1435 1436 1438 1439 1440 1442 1443 1444 1445 1446 1447 1448 1449 1450 1451 1452 1452 1454 1455 1456 1458 1458 1459 1461 1463 1464 1465 1466 1466 1465 1465 1464 1462 1461 1459 1458 1456 1454 1452 1451 1449 1448
1432 1434 1435 1436 1438 1439 1440 1441 1442 1443 1444 1445 1446 1447 1448 1448 1449 1450 1450 1452 1453 1454 1455 1457 1459 1461 1462 1463 1463 1463 1463 1462 1461 1460 1458 1456 1455 1454 1452 1450 1449 1447 1446 1445